Time,TemperatureF,DewpointF,PressureIn,WindDirection,WindDirectionDegrees,WindSpeedMPH,WindSpeedGustMPH,Humidity,HourlyPrecipIn,Conditions,Clouds,dailyrainin,SoftwareType,DateUTC
2013-02-23 00:00:00,30.6,28.3,30.25,SSE,152,1.0,5.0,91,0.00,,OVC018,0.00,VWS V14.01,2013-02-23 05:00:00,
2013-02-23 00:05:00,30.6,28.3,30.25,SSE,148,2.0,4.0,91,0.00,,OVC016,0.00,VWS V14.01,2013-02-23 05:05:00,
2013-02-23 00:10:00,30.7,28.4,30.25,SE,132,2.0,4.0,91,0.00,,OVC016,0.00,VWS V14.01,2013-02-23 05:10:00,
2013-02-23 00:15:00,30.8,28.5,30.25,South,186,2.0,2.0,91,0.00,,OVC016,0.00,VWS V14.01,2013-02-23 05:15:00,
2013-02-23 00:20:00,30.8,28.5,30.25,SSE,152,0.0,5.0,91,0.00,,OVC016,0.00,VWS V14.01,2013-02-23 05:20:00,
2013-02-23 00:25:00,30.9,28.9,30.24,ESE,121,3.0,5.0,92,0.00,,OVC016,0.00,VWS V14.01,2013-02-23 05:25:00,
2013-02-23 00:30:00,31.0,29.0,30.24,SE,143,5.0,6.0,92,0.00,,OVC016,0.00,VWS V14.01,2013-02-23 05:30:00,
2013-02-23 00:35:00,31.0,29.0,30.24,SE,133,4.0,6.0,92,0.00,,OVC014,0.00,VWS V14.01,2013-02-23 05:35:00,
2013-02-23 00:40:00,31.1,29.0,30.24,ESE,117,7.0,8.0,92,0.00,,OVC014,0.00,VWS V14.01,2013-02-23 05:40:00,
2013-02-23 00:45:00,31.1,29.0,30.23,SE,131,1.0,5.0,92,0.00,,OVC014,0.00,VWS V14.01,2013-02-23 05:45:00,
2013-02-23 00:50:00,31.1,29.0,30.24,SSE,149,5.0,8.0,92,0.00,,OVC014,0.00,VWS V14.01,2013-02-23 05:50:00,
2013-02-23 00:55:00,31.1,29.0,30.23,SE,136,8.0,9.0,92,0.00,,OVC014,0.00,VWS V14.01,2013-02-23 05:55:00,
2013-02-23 01:00:00,31.1,29.0,30.23,SE,131,6.0,6.0,92,0.00,,OVC014,0.00,VWS V14.01,2013-02-23 06:00:00,
2013-02-23 01:05:00,31.2,29.4,30.23,SSE,161,7.0,10.0,93,0.00,,OVC014,0.00,VWS V14.01,2013-02-23 06:05:00,
2013-02-23 01:10:00,31.3,29.5,30.23,SSE,155,7.0,10.0,93,0.00,,OVC014,0.00,VWS V14.01,2013-02-23 06:10:00,
2013-02-23 01:15:00,31.3,29.5,30.23,SSE,148,5.0,7.0,93,0.00,,OVC014,0.00,VWS V14.01,2013-02-23 06:15:00,
2013-02-23 01:20:00,31.4,29.6,30.23,SSE,155,4.0,7.0,93,0.00,,OVC014,0.00,VWS V14.01,2013-02-23 06:20:00,
2013-02-23 01:25:00,31.4,29.6,30.23,SSE,155,3.0,7.0,93,0.00,,OVC014,0.00,VWS V14.01,2013-02-23 06:25:00,
2013-02-23 01:30:00,31.4,29.6,30.22,SE,132,5.0,6.0,93,0.00,,OVC014,0.00,VWS V14.01,2013-02-23 06:30:00,
2013-02-23 01:35:00,31.4,29.6,30.22,SE,136,1.0,6.0,93,0.00,,OVC014,0.00,VWS V14.01,2013-02-23 06:35:00,
2013-02-23 01:40:00,31.5,29.7,30.22,SSE,167,3.0,7.0,93,0.00,,OVC014,0.00,VWS V14.01,2013-02-23 06:40:00,
2013-02-23 01:45:00,31.5,29.7,30.22,SSE,148,3.0,4.0,93,0.00,,OVC014,0.00,VWS V14.01,2013-02-23 06:45:00,
2013-02-23 01:50:00,31.5,29.7,30.22,SSE,159,4.0,5.0,93,0.00,,OVC014,0.00,VWS V14.01,2013-02-23 06:50:00,
2013-02-23 01:55:00,31.7,29.9,30.21,SSE,155,6.0,7.0,93,0.00,,OVC014,0.00,VWS V14.01,2013-02-23 06:55:00,
2013-02-23 02:00:00,31.7,29.9,30.21,SE,135,5.0,8.0,93,0.00,,OVC014,0.00,VWS V14.01,2013-02-23 07:00:00,
2013-02-23 02:05:00,31.8,30.0,30.20,SE,138,4.0,8.0,93,0.00,,OVC014,0.00,VWS V14.01,2013-02-23 07:05:00,
2013-02-23 02:10:00,31.8,30.0,30.20,SSE,157,3.0,8.0,93,0.00,,OVC014,0.00,VWS V14.01,2013-02-23 07:10:00,
2013-02-23 02:15:00,31.8,30.0,30.20,SSE,164,5.0,5.0,93,0.00,,OVC014,0.00,VWS V14.01,2013-02-23 07:15:00,
2013-02-23 02:20:00,31.8,30.0,30.19,SSE,152,5.0,8.0,93,0.00,,OVC014,0.00,VWS V14.01,2013-02-23 07:20:00,
2013-02-23 02:25:00,31.8,30.0,30.19,SE,145,5.0,8.0,93,0.00,,OVC014,0.00,VWS V14.01,2013-02-23 07:25:00,
2013-02-23 02:30:00,31.8,30.0,30.18,SE,146,4.0,4.0,93,0.00,,OVC014,0.00,VWS V14.01,2013-02-23 07:30:00,
2013-02-23 02:35:00,31.8,30.0,30.18,ESE,117,5.0,7.0,93,0.00,,OVC014,0.00,VWS V14.01,2013-02-23 07:35:00,
2013-02-23 02:40:00,31.8,30.3,30.18,SE,126,5.0,7.0,94,0.00,,OVC014,0.00,VWS V14.01,2013-02-23 07:40:00,
2013-02-23 02:45:00,31.8,30.3,30.18,SSE,167,5.0,5.0,94,0.00,,OVC014,0.00,VWS V14.01,2013-02-23 07:45:00,
2013-02-23 02:50:00,31.8,30.3,30.18,SE,141,6.0,9.0,94,0.00,,OVC014,0.00,VWS V14.01,2013-02-23 07:50:00,
2013-02-23 02:55:00,31.7,30.2,30.18,SE,127,5.0,9.0,94,0.00,,OVC014,0.00,VWS V14.01,2013-02-23 07:55:00,
2013-02-23 03:00:00,31.7,30.2,30.18,ESE,118,5.0,6.0,94,0.00,,OVC014,0.00,VWS V14.01,2013-02-23 08:00:00,
2013-02-23 03:05:00,31.7,30.2,30.17,ESE,108,8.0,8.0,94,0.00,,OVC012,0.00,VWS V14.01,2013-02-23 08:05:00,
2013-02-23 03:10:00,31.6,30.1,30.17,SE,145,4.0,10.0,94,0.00,,OVC012,0.00,VWS V14.01,2013-02-23 08:10:00,
2013-02-23 03:15:00,31.6,30.1,30.17,SE,142,2.0,4.0,94,0.00,,OVC012,0.00,VWS V14.01,2013-02-23 08:15:00,
2013-02-23 03:20:00,31.6,30.1,30.17,SE,136,4.0,8.0,94,0.00,,OVC012,0.00,VWS V14.01,2013-02-23 08:20:00,
2013-02-23 03:25:00,31.6,30.1,30.17,SSE,166,4.0,9.0,94,0.00,,OVC012,0.00,VWS V14.01,2013-02-23 08:25:00,
2013-02-23 03:30:00,31.6,30.1,30.17,SE,145,6.0,6.0,94,0.00,,OVC012,0.00,VWS V14.01,2013-02-23 08:30:00,
2013-02-23 03:35:00,31.6,30.1,30.16,SE,145,5.0,7.0,94,0.00,,OVC012,0.00,VWS V14.01,2013-02-23 08:35:00,
2013-02-23 03:40:00,31.7,30.2,30.17,SE,145,4.0,7.0,94,0.00,,OVC012,0.00,VWS V14.01,2013-02-23 08:40:00,
2013-02-23 03:45:00,31.7,30.2,30.16,SE,146,5.0,6.0,94,0.00,,OVC012,0.00,VWS V14.01,2013-02-23 08:45:00,
2013-02-23 03:50:00,31.8,30.3,30.16,SE,128,5.0,7.0,94,0.00,,OVC012,0.00,VWS V14.01,2013-02-23 08:50:00,
2013-02-23 03:55:00,31.7,30.2,30.16,SE,133,5.0,7.0,94,0.00,,OVC012,0.00,VWS V14.01,2013-02-23 08:55:00,
2013-02-23 04:00:00,31.7,30.2,30.16,SSE,155,3.0,3.0,94,0.00,,OVC012,0.00,VWS V14.01,2013-02-23 09:00:00,
2013-02-23 04:05:00,31.7,30.2,30.16,ESE,113,5.0,8.0,94,0.00,,OVC010,0.00,VWS V14.01,2013-02-23 09:05:00,
2013-02-23 04:10:00,31.7,30.2,30.16,South,171,5.0,8.0,94,0.00,,OVC010,0.00,VWS V14.01,2013-02-23 09:10:00,
2013-02-23 04:15:00,31.7,30.2,30.15,ESE,121,6.0,7.0,94,0.00,,OVC010,0.00,VWS V14.01,2013-02-23 09:15:00,
2013-02-23 04:20:00,31.6,30.1,30.15,SSE,159,4.0,9.0,94,0.00,,OVC010,0.00,VWS V14.01,2013-02-23 09:20:00,
2013-02-23 04:25:00,31.6,30.1,30.15,SE,136,5.0,9.0,94,0.00,,OVC010,0.00,VWS V14.01,2013-02-23 09:25:00,
2013-02-23 04:30:00,31.7,30.2,30.15,SE,142,3.0,3.0,94,0.00,,OVC010,0.00,VWS V14.01,2013-02-23 09:30:00,
2013-02-23 04:35:00,31.7,30.2,30.15,SE,146,3.0,8.0,94,0.00,,OVC010,0.00,VWS V14.01,2013-02-23 09:35:00,
2013-02-23 04:40:00,31.6,30.1,30.15,SE,139,4.0,8.0,94,0.00,,OVC010,0.00,VWS V14.01,2013-02-23 09:40:00,
2013-02-23 04:45:00,31.6,30.1,30.15,SE,141,3.0,4.0,94,0.00,,OVC010,0.00,VWS V14.01,2013-02-23 09:45:00,
2013-02-23 04:50:00,31.6,30.1,30.14,SE,133,6.0,10.0,94,0.00,,,0.00,VWS V14.01,2013-02-23 09:50:00,
2013-02-23 04:55:00,31.6,30.1,30.14,SSE,153,7.0,10.0,94,0.00,,,0.00,VWS V14.01,2013-02-23 09:55:00,
2013-02-23 05:00:00,31.6,30.1,30.14,SE,145,5.0,5.0,94,0.00,,,0.00,VWS V14.01,2013-02-23 10:00:00,
2013-02-23 05:05:00,31.6,30.1,30.14,SSE,167,5.0,10.0,94,0.00,,,0.00,VWS V14.01,2013-02-23 10:05:00,
2013-02-23 05:10:00,31.6,30.1,30.14,SE,139,7.0,11.0,94,0.00,,,0.00,VWS V14.01,2013-02-23 10:10:00,
2013-02-23 05:15:00,31.6,30.1,30.13,SE,136,9.0,9.0,94,0.00,,,0.00,VWS V14.01,2013-02-23 10:15:00,
2013-02-23 05:20:00,31.6,30.1,30.14,ESE,117,5.0,10.0,94,0.00,,,0.00,VWS V14.01,2013-02-23 10:20:00,
2013-02-23 05:25:00,31.6,30.1,30.14,SE,146,4.0,10.0,94,0.00,,,0.00,VWS V14.01,2013-02-23 10:25:00,
2013-02-23 05:30:00,31.6,30.1,30.14,SE,124,5.0,10.0,94,0.00,,,0.00,VWS V14.01,2013-02-23 10:30:00,
2013-02-23 05:35:00,31.5,30.0,30.13,SE,124,6.0,9.0,94,0.00,,,0.00,VWS V14.01,2013-02-23 10:35:00,
2013-02-23 05:40:00,31.5,30.0,30.13,ESE,117,7.0,9.0,94,0.00,,,0.00,VWS V14.01,2013-02-23 10:40:00,
2013-02-23 05:45:00,31.5,30.0,30.12,SE,135,4.0,9.0,94,0.00,,,0.00,VWS V14.01,2013-02-23 10:45:00,
2013-02-23 05:50:00,31.5,30.0,30.13,ESE,105,5.0,8.0,94,0.00,,,0.00,VWS V14.01,2013-02-23 10:50:00,
2013-02-23 05:55:00,31.5,30.0,30.13,East,101,6.0,8.0,94,0.00,,,0.00,VWS V14.01,2013-02-23 10:55:00,
2013-02-23 06:00:00,31.5,30.0,30.13,SE,146,3.0,8.0,94,0.00,,,0.00,VWS V14.01,2013-02-23 11:00:00,
2013-02-23 06:05:00,31.5,30.0,30.13,SE,143,4.0,9.0,94,0.00,,,0.00,VWS V14.01,2013-02-23 11:05:00,
2013-02-23 06:10:00,31.5,30.0,30.13,SSE,150,3.0,9.0,94,0.00,,,0.00,VWS V14.01,2013-02-23 11:10:00,
2013-02-23 06:15:00,31.5,30.0,30.13,SE,128,5.0,9.0,94,0.00,,,0.00,VWS V14.01,2013-02-23 11:15:00,
2013-02-23 06:20:00,31.5,30.0,30.13,SE,136,5.0,6.0,94,0.00,,,0.00,VWS V14.01,2013-02-23 11:20:00,
2013-02-23 06:25:00,31.5,30.0,30.13,SE,138,2.0,7.0,94,0.00,,,0.00,VWS V14.01,2013-02-23 11:25:00,
2013-02-23 06:30:00,31.5,30.0,30.12,SSE,162,5.0,8.0,94,0.00,,,0.00,VWS V14.01,2013-02-23 11:30:00,
2013-02-23 06:35:00,31.5,30.0,30.12,SSE,167,7.0,8.0,94,0.00,,,0.00,VWS V14.01,2013-02-23 11:35:00,
2013-02-23 06:39:00,31.5,30.0,30.12,SE,142,2.0,8.0,94,0.00,,,0.00,VWS V14.01,2013-02-23 11:39:00,
2013-02-23 06:45:00,31.5,30.0,30.12,ESE,107,5.0,8.0,94,0.00,,,0.00,VWS V14.01,2013-02-23 11:45:00,
2013-02-23 06:50:00,31.5,30.0,30.12,SSE,162,3.0,7.0,94,0.00,,,0.00,VWS V14.01,2013-02-23 11:50:00,
2013-02-23 06:55:00,31.5,30.2,30.12,SE,132,3.0,7.0,95,0.00,,,0.00,VWS V14.01,2013-02-23 11:55:00,
2013-02-23 07:00:00,31.5,30.2,30.12,SE,127,7.0,10.0,95,0.00,,,0.00,VWS V14.01,2013-02-23 12:00:00,
2013-02-23 07:05:00,31.6,30.3,30.11,SE,131,7.0,9.0,95,0.00,,,0.00,VWS V14.01,2013-02-23 12:05:00,
2013-02-23 07:10:00,31.6,30.3,30.11,SSE,155,3.0,9.0,95,0.00,,,0.00,VWS V14.01,2013-02-23 12:10:00,
2013-02-23 07:15:00,31.6,30.3,30.11,SSE,153,4.0,9.0,95,0.00,,,0.00,VWS V14.01,2013-02-23 12:15:00,
2013-02-23 07:20:00,31.6,30.3,30.11,SE,138,6.0,7.0,95,0.00,,,0.00,VWS V14.01,2013-02-23 12:20:00,
2013-02-23 07:24:00,31.6,30.3,30.11,SE,131,6.0,10.0,95,0.00,,,0.00,VWS V14.01,2013-02-23 12:24:00,
2013-02-23 07:29:00,31.7,30.4,30.11,SE,135,6.0,10.0,95,0.00,,,0.00,VWS V14.01,2013-02-23 12:29:00,
2013-02-23 07:34:00,31.7,30.4,30.11,South,177,3.0,9.0,95,0.00,,,0.00,VWS V14.01,2013-02-23 12:34:00,
2013-02-23 07:39:00,31.7,30.4,30.11,SE,136,5.0,9.0,95,0.00,,,0.00,VWS V14.01,2013-02-23 12:39:00,
2013-02-23 07:44:00,31.8,30.5,30.11,SE,141,4.0,10.0,95,0.00,,,0.00,VWS V14.01,2013-02-23 12:44:00,
2013-02-23 07:49:00,31.8,30.5,30.11,South,172,5.0,8.0,95,0.00,,,0.00,VWS V14.01,2013-02-23 12:49:00,
2013-02-23 07:54:00,31.8,30.5,30.10,SE,124,4.0,8.0,95,0.00,,,0.00,VWS V14.01,2013-02-23 12:54:00,
2013-02-23 07:59:00,31.8,30.5,30.10,SE,135,5.0,10.0,95,0.00,,,0.00,VWS V14.01,2013-02-23 12:59:00,
2013-02-23 08:04:00,31.8,30.5,30.09,SE,138,6.0,12.0,95,0.00,,,0.00,VWS V14.01,2013-02-23 13:04:00,
2013-02-23 08:09:00,31.9,30.6,30.09,SE,131,3.0,12.0,95,0.00,,,0.00,VWS V14.01,2013-02-23 13:09:00,
2013-02-23 08:14:00,31.9,30.6,30.10,SSE,149,5.0,12.0,95,0.00,,,0.00,VWS V14.01,2013-02-23 13:14:00,
2013-02-23 08:19:00,32.0,30.7,30.11,SSE,165,3.0,9.0,95,0.00,,,0.00,VWS V14.01,2013-02-23 13:19:00,
2013-02-23 08:24:00,32.0,30.7,30.11,SSE,165,4.0,9.0,95,0.00,,,0.00,VWS V14.01,2013-02-23 13:24:00,
2013-02-23 08:29:00,32.1,30.8,30.10,SE,138,5.0,9.0,95,0.00,,,0.00,VWS V14.01,2013-02-23 13:29:00,
2013-02-23 08:34:00,32.1,30.8,30.10,SSE,149,6.0,7.0,95,0.00,,,0.00,VWS V14.01,2013-02-23 13:34:00,
2013-02-23 08:39:00,32.1,30.8,30.09,SSE,159,5.0,9.0,95,0.00,,,0.00,VWS V14.01,2013-02-23 13:39:00,
2013-02-23 08:44:00,32.2,30.9,30.09,SE,136,5.0,9.0,95,0.00,,,0.00,VWS V14.01,2013-02-23 13:44:00,
2013-02-23 08:49:00,32.2,30.9,30.09,ESE,115,11.0,12.0,95,0.00,,,0.00,VWS V14.01,2013-02-23 13:49:00,
2013-02-23 08:54:00,32.3,31.0,30.09,SSE,148,3.0,12.0,95,0.00,,,0.00,VWS V14.01,2013-02-23 13:54:00,
2013-02-23 08:59:00,32.3,31.0,30.09,SE,128,3.0,12.0,95,0.00,,,0.00,VWS V14.01,2013-02-23 13:59:00,
2013-02-23 09:04:00,32.3,31.0,30.08,SE,139,8.0,8.0,95,0.00,,,0.00,VWS V14.01,2013-02-23 14:04:00,
2013-02-23 09:09:00,32.3,31.0,30.08,ESE,113,6.0,9.0,95,0.00,,,0.00,VWS V14.01,2013-02-23 14:09:00,
2013-02-23 09:14:00,32.3,31.0,30.08,ESE,122,8.0,9.0,95,0.00,,,0.00,VWS V14.01,2013-02-23 14:14:00,
2013-02-23 09:19:00,32.3,31.0,30.08,SE,135,5.0,7.0,95,0.00,,,0.00,VWS V14.01,2013-02-23 14:19:00,
2013-02-23 09:24:00,32.3,31.0,30.08,SE,138,3.0,7.0,95,0.00,,,0.00,VWS V14.01,2013-02-23 14:24:00,
2013-02-23 09:29:00,32.4,31.1,30.08,SE,135,6.0,9.0,95,0.00,,,0.00,VWS V14.01,2013-02-23 14:29:00,
2013-02-23 09:34:00,32.4,31.1,30.07,ESE,113,7.0,7.0,95,0.00,,,0.00,VWS V14.01,2013-02-23 14:34:00,
2013-02-23 09:39:00,32.4,31.1,30.07,SE,135,5.0,9.0,95,0.00,,,0.00,VWS V14.01,2013-02-23 14:39:00,
2013-02-23 09:44:00,32.5,31.2,30.06,ESE,107,6.0,10.0,95,0.00,,,0.00,VWS V14.01,2013-02-23 14:44:00,
2013-02-23 09:49:00,32.5,31.2,30.06,SE,141,7.0,10.0,95,0.00,,,0.00,VWS V14.01,2013-02-23 14:49:00,
2013-02-23 09:54:00,32.7,31.4,30.05,SE,131,3.0,11.0,95,0.00,,,0.00,VWS V14.01,2013-02-23 14:54:00,
2013-02-23 09:59:00,32.8,31.5,30.05,SE,132,4.0,14.0,95,0.00,,,0.00,VWS V14.01,2013-02-23 14:59:00,
2013-02-23 10:04:00,32.9,31.6,30.05,SE,134,8.0,11.0,95,0.00,,,0.00,VWS V14.01,2013-02-23 15:04:00,
2013-02-23 10:09:00,32.9,31.6,30.06,ESE,122,5.0,11.0,95,0.00,,,0.00,VWS V14.01,2013-02-23 15:09:00,
2013-02-23 10:14:00,32.9,31.6,30.05,ESE,105,3.0,11.0,95,0.00,,,0.00,VWS V14.01,2013-02-23 15:14:00,
2013-02-23 10:19:00,33.0,31.7,30.05,SE,143,6.0,10.0,95,0.00,,,0.00,VWS V14.01,2013-02-23 15:19:00,
2013-02-23 10:24:00,33.0,31.7,30.05,SE,136,5.0,10.0,95,0.00,,,0.00,VWS V14.01,2013-02-23 15:24:00,
2013-02-23 10:29:00,33.1,31.8,30.04,SE,146,5.0,11.0,95,0.00,,,0.00,VWS V14.01,2013-02-23 15:29:00,
2013-02-23 10:34:00,33.2,31.9,30.05,SSE,163,5.0,10.0,95,0.00,,,0.00,VWS V14.01,2013-02-23 15:34:00,
2013-02-23 10:39:00,33.3,32.0,30.05,ESE,111,5.0,10.0,95,0.00,,,0.00,VWS V14.01,2013-02-23 15:39:00,
2013-02-23 10:44:00,33.5,32.2,30.04,SE,135,6.0,10.0,95,0.00,,,0.00,VWS V14.01,2013-02-23 15:44:00,
2013-02-23 10:49:00,33.6,32.3,30.05,South,173,5.0,10.0,95,0.00,,,0.00,VWS V14.01,2013-02-23 15:49:00,
2013-02-23 10:54:00,33.7,32.4,30.04,SSE,156,6.0,10.0,95,0.00,,,0.00,VWS V14.01,2013-02-23 15:54:00,
2013-02-23 10:59:00,33.9,32.6,30.04,ESE,110,7.0,10.0,95,0.00,,,0.00,VWS V14.01,2013-02-23 15:59:00,
2013-02-23 11:04:00,33.9,32.6,30.04,SSE,163,5.0,10.0,95,0.00,,-RA,0.00,VWS V14.01,2013-02-23 16:04:00,
2013-02-23 11:09:00,34.0,32.7,30.04,SSE,148,6.0,10.0,95,0.00,,-RA,0.00,VWS V14.01,2013-02-23 16:09:00,
2013-02-23 11:14:00,34.1,32.8,30.03,SE,142,5.0,10.0,95,0.00,,,0.00,VWS V14.01,2013-02-23 16:14:00,
2013-02-23 11:19:00,34.2,32.9,30.03,SSE,151,7.0,10.0,95,0.00,,,0.00,VWS V14.01,2013-02-23 16:19:00,
2013-02-23 11:24:00,34.3,33.0,30.02,SSE,148,7.0,12.0,95,0.00,,,0.00,VWS V14.01,2013-02-23 16:24:00,
2013-02-23 11:29:00,34.4,33.1,30.02,SSE,167,9.0,12.0,95,0.00,,,0.00,VWS V14.01,2013-02-23 16:29:00,
2013-02-23 11:34:00,34.4,33.1,30.02,ESE,117,8.0,11.0,95,0.00,,,0.00,VWS V14.01,2013-02-23 16:34:00,
2013-02-23 11:39:00,34.4,33.1,30.02,ESE,117,7.0,11.0,95,0.00,,,0.00,VWS V14.01,2013-02-23 16:39:00,
2013-02-23 11:44:00,34.4,33.1,30.02,South,169,1.0,11.0,95,0.00,,,0.00,VWS V14.01,2013-02-23 16:44:00,
2013-02-23 11:49:00,34.5,33.2,30.01,SE,141,7.0,9.0,95,0.00,,,0.00,VWS V14.01,2013-02-23 16:49:00,
2013-02-23 11:54:00,34.5,33.2,30.00,SE,136,4.0,9.0,95,0.00,,,0.00,VWS V14.01,2013-02-23 16:54:00,
2013-02-23 11:59:00,34.6,33.3,30.00,SSE,162,7.0,9.0,95,0.00,,,0.00,VWS V14.01,2013-02-23 16:59:00,
2013-02-23 12:04:00,34.8,33.5,30.00,SE,131,6.0,13.0,95,0.00,,,0.00,VWS V14.01,2013-02-23 17:04:00,
2013-02-23 12:09:00,34.9,33.6,29.99,SE,130,4.0,13.0,95,0.00,,,0.00,VWS V14.01,2013-02-23 17:09:00,
2013-02-23 12:14:00,35.0,33.7,29.99,ESE,117,6.0,13.0,95,0.00,,,0.00,VWS V14.01,2013-02-23 17:14:00,
2013-02-23 12:19:00,35.3,34.0,29.98,SSE,149,8.0,12.0,95,0.00,,,0.00,VWS V14.01,2013-02-23 17:19:00,
2013-02-23 12:24:00,35.7,34.4,29.98,SSE,150,4.0,12.0,95,0.00,,,0.00,VWS V14.01,2013-02-23 17:24:00,
2013-02-23 12:29:00,35.6,34.3,29.99,SE,134,4.0,12.0,95,0.00,,,0.00,VWS V14.01,2013-02-23 17:29:00,
2013-02-23 12:34:00,35.6,34.3,29.99,South,181,4.0,9.0,95,0.00,,,0.00,VWS V14.01,2013-02-23 17:34:00,
2013-02-23 12:39:00,35.6,34.3,29.98,SE,131,5.0,9.0,95,0.00,,,0.00,VWS V14.01,2013-02-23 17:39:00,
2013-02-23 12:44:00,35.7,34.4,29.98,SE,145,6.0,9.0,95,0.00,,,0.00,VWS V14.01,2013-02-23 17:44:00,
2013-02-23 12:49:00,35.7,34.4,29.98,SE,128,4.0,6.0,95,0.00,,,0.00,VWS V14.01,2013-02-23 17:49:00,
2013-02-23 12:54:00,35.8,34.5,29.98,SE,145,4.0,7.0,95,0.00,,,0.00,VWS V14.01,2013-02-23 17:54:00,
2013-02-23 12:59:00,36.0,34.7,29.98,ESE,105,5.0,7.0,95,0.00,,,0.00,VWS V14.01,2013-02-23 17:59:00,
2013-02-23 13:04:00,36.1,34.8,29.98,ENE,60,4.0,6.0,95,0.00,,,0.00,VWS V14.01,2013-02-23 18:04:00,
2013-02-23 13:09:00,36.2,34.9,29.98,ESE,114,6.0,7.0,95,0.00,,,0.00,VWS V14.01,2013-02-23 18:09:00,
2013-02-23 13:14:00,36.2,34.9,29.98,ESE,120,1.0,7.0,95,0.00,,,0.00,VWS V14.01,2013-02-23 18:14:00,
2013-02-23 13:19:00,36.2,34.9,29.98,SE,143,1.0,5.0,95,0.00,,,0.00,VWS V14.01,2013-02-23 18:19:00,
2013-02-23 13:24:00,36.3,35.0,29.98,SE,127,3.0,5.0,95,0.01,,-RA,0.01,VWS V14.01,2013-02-23 18:24:00,
2013-02-23 13:29:00,36.3,35.0,29.98,East,94,2.0,5.0,95,0.01,,-RA,0.01,VWS V14.01,2013-02-23 18:29:00,
2013-02-23 13:34:00,36.4,35.1,29.97,South,179,1.0,4.0,95,0.01,,-RA,0.01,VWS V14.01,2013-02-23 18:34:00,
2013-02-23 13:39:00,36.5,35.2,29.97,SE,141,2.0,4.0,95,0.01,,-RA,0.01,VWS V14.01,2013-02-23 18:39:00,
2013-02-23 13:44:00,36.5,35.2,29.97,ESE,110,6.0,6.0,95,0.01,,-RA,0.01,VWS V14.01,2013-02-23 18:44:00,
2013-02-23 13:49:00,36.6,35.3,29.96,SSE,162,8.0,8.0,95,0.01,,-RA,0.01,VWS V14.01,2013-02-23 18:49:00,
2013-02-23 13:54:00,36.8,35.5,29.96,SSE,151,4.0,8.0,95,0.01,,-RA,0.01,VWS V14.01,2013-02-23 18:54:00,
2013-02-23 13:59:00,36.8,35.5,29.96,East,99,2.0,8.0,95,0.01,,-RA,0.01,VWS V14.01,2013-02-23 18:59:00,
2013-02-23 14:04:00,36.8,35.5,29.96,ESE,122,1.0,4.0,95,0.01,,-RA,0.01,VWS V14.01,2013-02-23 19:04:00,
2013-02-23 14:09:00,36.7,35.4,29.96,SE,138,1.0,5.0,95,0.01,,-RA,0.01,VWS V14.01,2013-02-23 19:09:00,
2013-02-23 14:14:00,36.8,35.5,29.96,ENE,70,2.0,5.0,95,0.01,,-RA,0.01,VWS V14.01,2013-02-23 19:14:00,
2013-02-23 14:19:00,36.8,35.5,29.96,ENE,74,1.0,3.0,95,0.01,,-RA,0.01,VWS V14.01,2013-02-23 19:19:00,
2013-02-23 14:24:00,36.7,35.4,29.96,East,95,1.0,3.0,95,0.02,,-RA,0.02,VWS V14.01,2013-02-23 19:24:00,
2013-02-23 14:29:00,36.7,35.4,29.96,East,90,3.0,5.0,95,0.02,,-RA,0.02,VWS V14.01,2013-02-23 19:29:00,
2013-02-23 14:34:00,36.7,35.4,29.96,East,98,1.0,5.0,95,0.01,,-RA,0.02,VWS V14.01,2013-02-23 19:34:00,
2013-02-23 14:39:00,36.8,35.5,29.95,ESE,110,2.0,5.0,95,0.01,,-RA,0.02,VWS V14.01,2013-02-23 19:39:00,
2013-02-23 14:44:00,36.8,35.5,29.95,East,86,2.0,5.0,95,0.01,,-RA,0.02,VWS V14.01,2013-02-23 19:44:00,
2013-02-23 14:49:00,37.0,35.7,29.95,East,83,0.0,2.0,95,0.02,,-RA,0.03,VWS V14.01,2013-02-23 19:49:00,
2013-02-23 14:54:00,37.1,35.8,29.95,ESE,113,2.0,3.0,95,0.02,,-RA,0.03,VWS V14.01,2013-02-23 19:54:00,
2013-02-23 14:59:00,37.2,35.9,29.95,East,95,3.0,3.0,95,0.02,,-RA,0.03,VWS V14.01,2013-02-23 19:59:00,
2013-02-23 15:04:00,37.2,35.9,29.95,East,90,2.0,5.0,95,0.03,,-RA,0.04,VWS V14.01,2013-02-23 20:04:00,
2013-02-23 15:09:00,37.3,36.0,29.94,ESE,108,4.0,5.0,95,0.03,,-RA,0.04,VWS V14.01,2013-02-23 20:09:00,
2013-02-23 15:14:00,37.3,36.0,29.94,ESE,114,2.0,5.0,95,0.03,,-RA,0.04,VWS V14.01,2013-02-23 20:14:00,
2013-02-23 15:19:00,37.2,35.9,29.94,SE,124,4.0,5.0,95,0.03,,-RA,0.04,VWS V14.01,2013-02-23 20:19:00,
2013-02-23 15:24:00,37.2,35.9,29.93,SE,129,4.0,6.0,95,0.04,,-RA,0.05,VWS V14.01,2013-02-23 20:24:00,
2013-02-23 15:29:00,37.2,35.9,29.93,SE,124,2.0,6.0,95,0.04,,-RA,0.05,VWS V14.01,2013-02-23 20:29:00,
2013-02-23 15:34:00,37.2,35.9,29.93,ESE,120,3.0,5.0,95,0.04,,-RA,0.06,VWS V14.01,2013-02-23 20:34:00,
2013-02-23 15:39:00,37.2,35.9,29.93,East,96,4.0,6.0,95,0.04,,-RA,0.06,VWS V14.01,2013-02-23 20:39:00,
2013-02-23 15:44:00,37.2,35.9,29.93,SE,138,3.0,6.0,95,0.04,,-RA,0.06,VWS V14.01,2013-02-23 20:44:00,
2013-02-23 15:49:00,37.2,35.9,29.93,ESE,110,3.0,6.0,95,0.04,,-RA,0.06,VWS V14.01,2013-02-23 20:49:00,
2013-02-23 15:54:00,37.2,35.9,29.93,ESE,105,3.0,6.0,95,0.04,,-RA,0.06,VWS V14.01,2013-02-23 20:54:00,
2013-02-23 15:59:00,37.2,35.9,29.93,East,101,3.0,6.0,95,0.05,,-RA,0.07,VWS V14.01,2013-02-23 20:59:00,
2013-02-23 16:04:00,37.2,35.9,29.93,East,98,4.0,7.0,95,0.04,,,0.07,VWS V14.01,2013-02-23 21:04:00,
2013-02-23 16:09:00,37.2,35.9,29.92,ENE,60,2.0,7.0,95,0.04,,,0.07,VWS V14.01,2013-02-23 21:09:00,
2013-02-23 16:14:00,37.2,35.9,29.92,ESE,102,5.0,7.0,95,0.04,,-RA,0.07,VWS V14.01,2013-02-23 21:14:00,
2013-02-23 16:19:00,37.3,36.0,29.92,East,96,4.0,10.0,95,0.03,,-RA,0.07,VWS V14.01,2013-02-23 21:19:00,
2013-02-23 16:24:00,37.3,36.0,29.92,SSE,148,3.0,10.0,95,0.04,,-RA,0.08,VWS V14.01,2013-02-23 21:24:00,
2013-02-23 16:29:00,37.3,36.0,29.92,SE,124,3.0,10.0,95,0.04,,-RA,0.08,VWS V14.01,2013-02-23 21:29:00,
2013-02-23 16:34:00,37.3,36.0,29.92,East,91,3.0,6.0,95,0.03,,-RA,0.08,VWS V14.01,2013-02-23 21:34:00,
2013-02-23 16:39:00,37.3,36.0,29.91,ESE,108,3.0,6.0,95,0.03,,-RA,0.08,VWS V14.01,2013-02-23 21:39:00,
2013-02-23 16:44:00,37.4,36.1,29.91,ESE,113,5.0,10.0,95,0.04,,-RA,0.09,VWS V14.01,2013-02-23 21:44:00,
2013-02-23 16:49:00,37.4,36.1,29.91,ESE,113,5.0,8.0,95,0.03,,-RA,0.09,VWS V14.01,2013-02-23 21:49:00,
2013-02-23 16:54:00,37.4,36.1,29.91,ESE,112,5.0,8.0,95,0.03,,-RA,0.09,VWS V14.01,2013-02-23 21:54:00,
2013-02-23 16:59:00,37.4,36.1,29.90,ESE,120,5.0,10.0,95,0.03,,-RA,0.09,VWS V14.01,2013-02-23 21:59:00,
2013-02-23 17:04:00,37.5,36.2,29.90,ESE,108,7.0,9.0,95,0.02,,,0.09,VWS V14.01,2013-02-23 22:04:00,
2013-02-23 17:09:00,37.4,36.1,29.90,SE,125,7.0,12.0,95,0.02,,,0.09,VWS V14.01,2013-02-23 22:09:00,
2013-02-23 17:14:00,37.4,36.1,29.89,SSE,165,5.0,14.0,95,0.02,,,0.09,VWS V14.01,2013-02-23 22:14:00,
2013-02-23 17:19:00,37.3,36.0,29.89,SE,143,4.0,10.0,95,0.02,,,0.09,VWS V14.01,2013-02-23 22:19:00,
2013-02-23 17:24:00,37.2,35.9,29.89,SE,146,4.0,11.0,95,0.02,,,0.09,VWS V14.01,2013-02-23 22:24:00,
2013-02-23 17:29:00,37.1,35.8,29.88,East,90,6.0,11.0,95,0.02,,,0.09,VWS V14.01,2013-02-23 22:29:00,
2013-02-23 17:34:00,37.1,35.8,29.88,SSE,159,10.0,10.0,95,0.01,,,0.09,VWS V14.01,2013-02-23 22:34:00,
2013-02-23 17:39:00,37.0,35.7,29.88,ESE,107,5.0,11.0,95,0.01,,,0.09,VWS V14.01,2013-02-23 22:39:00,
2013-02-23 17:44:00,36.9,35.6,29.88,East,89,3.0,15.0,95,0.01,,,0.09,VWS V14.01,2013-02-23 22:44:00,
2013-02-23 17:49:00,36.8,35.5,29.88,ESE,111,4.0,8.0,95,0.00,,,0.09,VWS V14.01,2013-02-23 22:49:00,
2013-02-23 17:54:00,36.8,35.5,29.89,East,94,4.0,10.0,95,0.00,,,0.09,VWS V14.01,2013-02-23 22:54:00,
2013-02-23 17:59:00,36.7,35.4,29.89,SSW,211,5.0,10.0,95,0.00,,,0.09,VWS V14.01,2013-02-23 22:59:00,
2013-02-23 18:04:00,36.5,35.2,29.88,SSE,162,4.0,13.0,95,0.00,,OVC007,0.09,VWS V14.01,2013-02-23 23:04:00,
2013-02-23 18:09:00,36.5,35.2,29.88,ESE,115,7.0,14.0,95,0.00,,OVC007,0.09,VWS V14.01,2013-02-23 23:09:00,
2013-02-23 18:14:00,36.4,35.1,29.89,SE,135,2.0,14.0,95,0.00,,OVC007,0.09,VWS V14.01,2013-02-23 23:14:00,
2013-02-23 18:19:00,36.3,35.0,29.89,East,83,5.0,13.0,95,0.00,,OVC007,0.09,VWS V14.01,2013-02-23 23:19:00,
2013-02-23 18:24:00,36.3,35.0,29.89,ENE,70,3.0,13.0,95,0.00,,OVC007,0.09,VWS V14.01,2013-02-23 23:24:00,
2013-02-23 18:29:00,36.2,34.9,29.89,East,101,5.0,13.0,95,0.00,,OVC007,0.09,VWS V14.01,2013-02-23 23:29:00,
2013-02-23 18:34:00,36.1,34.8,29.88,ESE,115,6.0,7.0,95,0.00,,OVC007,0.09,VWS V14.01,2013-02-23 23:34:00,
2013-02-23 18:39:00,36.1,34.8,29.88,SE,136,4.0,8.0,95,0.00,,,0.09,VWS V14.01,2013-02-23 23:39:00,
2013-02-23 18:44:00,36.0,34.7,29.88,ESE,118,9.0,18.0,95,0.00,,,0.09,VWS V14.01,2013-02-23 23:44:00,
2013-02-23 18:49:00,35.9,34.6,29.88,SSE,156,3.0,16.0,95,0.00,,,0.09,VWS V14.01,2013-02-23 23:49:00,
2013-02-23 18:54:00,35.8,34.5,29.88,SE,141,5.0,16.0,95,0.00,,,0.09,VWS V14.01,2013-02-23 23:54:00,
2013-02-23 18:59:00,35.7,34.4,29.87,ESE,108,10.0,16.0,95,0.00,,,0.09,VWS V14.01,2013-02-23 23:59:00,
2013-02-23 19:04:00,35.5,34.2,29.86,ESE,110,9.0,18.0,95,0.00,,,0.09,VWS V14.01,2013-02-24 00:04:00,
2013-02-23 19:09:00,35.4,34.1,29.86,East,90,8.0,18.0,95,0.00,,,0.09,VWS V14.01,2013-02-24 00:09:00,
2013-02-23 19:14:00,35.4,34.1,29.86,SE,143,6.0,18.0,95,0.00,,,0.09,VWS V14.01,2013-02-24 00:14:00,
2013-02-23 19:19:00,35.3,34.0,29.86,ESE,108,5.0,14.0,95,0.00,,OVC007,0.09,VWS V14.01,2013-02-24 00:19:00,
2013-02-23 19:24:00,35.3,34.0,29.86,SSE,158,6.0,14.0,95,0.00,,OVC007,0.09,VWS V14.01,2013-02-24 00:24:00,
2013-02-23 19:29:00,35.2,33.9,29.86,ESE,120,4.0,14.0,95,0.00,,OVC007,0.09,VWS V14.01,2013-02-24 00:29:00,
2013-02-23 19:34:00,35.1,33.8,29.86,SE,141,11.0,11.0,95,0.00,,OVC007,0.09,VWS V14.01,2013-02-24 00:34:00,
2013-02-23 19:39:00,35.0,33.7,29.87,East,90,5.0,11.0,95,0.00,,OVC007,0.09,VWS V14.01,2013-02-24 00:39:00,
2013-02-23 19:44:00,34.9,33.6,29.88,ESE,117,3.0,11.0,95,0.00,,OVC007,0.09,VWS V14.01,2013-02-24 00:44:00,
2013-02-23 19:49:00,34.8,33.5,29.88,SSE,152,6.0,7.0,95,0.00,,OVC007,0.09,VWS V14.01,2013-02-24 00:49:00,
2013-02-23 19:54:00,34.7,33.4,29.87,SE,134,4.0,10.0,95,0.00,,OVC007,0.09,VWS V14.01,2013-02-24 00:54:00,
2013-02-23 19:59:00,34.6,33.3,29.87,SE,131,4.0,11.0,95,0.00,,OVC007,0.09,VWS V14.01,2013-02-24 00:59:00,
2013-02-23 20:04:00,34.5,33.2,29.87,ESE,108,4.0,7.0,95,0.00,,OVC009,0.09,VWS V14.01,2013-02-24 01:04:00,
2013-02-23 20:09:00,34.4,33.1,29.87,ESE,104,5.0,10.0,95,0.00,,OVC009,0.09,VWS V14.01,2013-02-24 01:09:00,
2013-02-23 20:14:00,34.3,33.0,29.87,SE,131,4.0,10.0,95,0.00,,OVC009,0.09,VWS V14.01,2013-02-24 01:14:00,
2013-02-23 20:19:00,34.2,32.9,29.87,East,87,5.0,7.0,95,0.00,,OVC009,0.09,VWS V14.01,2013-02-24 01:19:00,
2013-02-23 20:24:00,34.2,32.9,29.87,SE,142,0.0,7.0,95,0.00,,OVC009,0.09,VWS V14.01,2013-02-24 01:24:00,
2013-02-23 20:29:00,34.2,32.9,29.87,ENE,70,1.0,7.0,95,0.00,,OVC009,0.09,VWS V14.01,2013-02-24 01:29:00,
2013-02-23 20:34:00,34.2,32.9,29.88,East,100,4.0,4.0,95,0.00,,OVC009,0.09,VWS V14.01,2013-02-24 01:34:00,
2013-02-23 20:39:00,34.1,32.8,29.88,NE,47,1.0,4.0,95,0.00,,OVC009,0.09,VWS V14.01,2013-02-24 01:39:00,
2013-02-23 20:44:00,34.1,32.8,29.87,East,91,3.0,6.0,95,0.00,,OVC009,0.09,VWS V14.01,2013-02-24 01:44:00,
2013-02-23 20:49:00,34.1,32.8,29.87,East,96,1.0,5.0,95,0.00,,OVC009,0.09,VWS V14.01,2013-02-24 01:49:00,
2013-02-23 20:54:00,34.1,32.8,29.87,ENE,68,0.0,5.0,95,0.00,,OVC009,0.09,VWS V14.01,2013-02-24 01:54:00,
2013-02-23 20:59:00,34.0,32.7,29.86,East,85,0.0,5.0,95,0.01,,OVC009,0.10,VWS V14.01,2013-02-24 01:59:00,
2013-02-23 21:04:00,34.1,32.8,29.86,ENE,69,2.0,2.0,95,0.01,,-RA,0.10,VWS V14.01,2013-02-24 02:04:00,
2013-02-23 21:09:00,34.1,32.8,29.85,ENE,70,3.0,3.0,95,0.01,,-RA,0.10,VWS V14.01,2013-02-24 02:09:00,
2013-02-23 21:14:00,34.0,32.7,29.85,ENE,76,2.0,5.0,95,0.01,,-RA,0.10,VWS V14.01,2013-02-24 02:14:00,
2013-02-23 21:19:00,34.0,32.7,29.85,ENE,64,2.0,3.0,95,0.01,,-RA,0.10,VWS V14.01,2013-02-24 02:19:00,
2013-02-23 21:24:00,34.0,32.7,29.84,ENE,69,2.0,3.0,95,0.01,,-RA,0.10,VWS V14.01,2013-02-24 02:24:00,
2013-02-23 21:29:00,33.9,32.6,29.84,East,86,2.0,3.0,95,0.01,,-RA,0.10,VWS V14.01,2013-02-24 02:29:00,
2013-02-23 21:34:00,33.9,32.6,29.84,ENE,63,4.0,5.0,95,0.01,,,0.10,VWS V14.01,2013-02-24 02:34:00,
2013-02-23 21:39:00,33.9,32.6,29.84,ENE,73,3.0,6.0,95,0.02,,,0.11,VWS V14.01,2013-02-24 02:39:00,
2013-02-23 21:44:00,33.9,32.6,29.84,East,82,2.0,6.0,95,0.02,,,0.11,VWS V14.01,2013-02-24 02:44:00,
2013-02-23 21:49:00,33.9,32.6,29.84,ENE,67,2.0,6.0,95,0.02,,,0.11,VWS V14.01,2013-02-24 02:49:00,
2013-02-23 21:54:00,33.8,32.5,29.84,ENE,67,2.0,6.0,95,0.02,,,0.11,VWS V14.01,2013-02-24 02:54:00,
2013-02-23 21:59:00,33.8,32.5,29.84,East,97,0.0,6.0,95,0.02,,,0.11,VWS V14.01,2013-02-24 02:59:00,
2013-02-23 22:04:00,33.8,32.5,29.83,ENE,60,1.0,2.0,95,0.01,,,0.11,VWS V14.01,2013-02-24 03:04:00,
2013-02-23 22:09:00,33.8,32.5,29.84,NE,40,4.0,4.0,95,0.01,,,0.11,VWS V14.01,2013-02-24 03:09:00,
2013-02-23 22:14:00,33.8,32.5,29.84,NNW,340,2.0,4.0,95,0.01,,,0.11,VWS V14.01,2013-02-24 03:14:00,